contact:dominique.lefevre@mio.osupytheas.fr, maurice.libes@osupytheas.fr, didier.mallarino@osupytheas.fr
Project:EMSO http://www.emso-fr.org/EMSO-France
Depth: 2436.0 m
Title:EMSO Ligure Ouest : Data MII capteur MICROCAT
DateTime_Computer,Latitude,Longitude,Temperature,Conductivity,Pressure,DateTime_Instrument
DateTime_Computer,Latitude,Longitude,degC,S m-1,dbar,DateTime_Instrument
2021-02-27T00:02:38Z,42.805,6.029,13.2992,4.59999,2470.03,2021-2-27T02:03:43Z
2021-02-27T00:05:41Z,42.805,6.029,13.2998,4.59996,2469.993,2021-2-27T02:06:46Z
2021-02-27T00:08:44Z,42.805,6.029,13.2994,4.59995,2470.017,2021-2-27T02:09:49Z
2021-02-27T00:11:47Z,42.805,6.029,13.3000,4.60001,2470.007,2021-2-27T02:12:52Z
2021-02-27T00:14:51Z,42.805,6.029,13.2992,4.59996,2469.993,2021-2-27T02:15:55Z
2021-02-27T00:17:54Z,42.805,6.029,13.2993,4.59995,2470.03,2021-2-27T02:18:59Z
2021-02-27T00:20:57Z,42.805,6.029,13.2993,4.59996,2469.993,2021-2-27T02:22:02Z
2021-02-27T00:24:00Z,42.805,6.029,13.2996,4.60004,2470.03,2021-2-27T02:25:05Z
2021-02-27T00:27:03Z,42.805,6.029,13.2991,4.59996,2470.017,2021-2-27T02:28:08Z
2021-02-27T00:30:06Z,42.805,6.029,13.3000,4.59998,2469.993,2021-2-27T02:31:11Z
2021-02-27T00:33:09Z,42.805,6.029,13.2993,4.59997,2469.993,2021-2-27T02:34:14Z
2021-02-27T00:36:12Z,42.805,6.029,13.3011,4.60006,2469.993,2021-2-27T02:37:17Z
2021-02-27T00:39:16Z,42.805,6.029,13.2996,4.60002,2469.993,2021-2-27T02:40:20Z
2021-02-27T00:42:19Z,42.805,6.029,13.3001,4.60001,2469.993,2021-2-27T02:43:24Z
2021-02-27T00:45:22Z,42.805,6.029,13.2999,4.60003,2469.947,2021-2-27T02:46:27Z
2021-02-27T00:48:25Z,42.805,6.029,13.3001,4.60003,2470.007,2021-2-27T02:49:30Z
2021-02-27T00:51:28Z,42.805,6.029,13.3004,4.60004,2469.97,2021-2-27T02:52:33Z
2021-02-27T00:54:31Z,42.805,6.029,13.3002,4.60004,2469.97,2021-2-27T02:55:36Z
2021-02-27T00:57:34Z,42.805,6.029,13.2998,4.60003,2470.017,2021-2-27T02:58:39Z
2021-02-27T01:00:37Z,42.805,6.029,13.3001,4.60004,2469.984,2021-2-27T03:01:42Z
2021-02-27T01:03:41Z,42.805,6.029,13.3000,4.60002,2469.97,2021-2-27T03:04:45Z
2021-02-27T01:06:44Z,42.805,6.029,13.2999,4.60003,2469.984,2021-2-27T03:07:49Z
2021-02-27T01:09:47Z,42.805,6.029,13.2998,4.60003,2469.947,2021-2-27T03:10:52Z
2021-02-27T01:12:50Z,42.805,6.029,13.2999,4.60005,2470.007,2021-2-27T03:13:55Z
2021-02-27T01:15:53Z,42.805,6.029,13.2998,4.60005,2469.979,2021-2-27T03:16:58Z
2021-02-27T01:18:56Z,42.805,6.029,13.3002,4.60006,2469.984,2021-2-27T03:20:01Z
2021-02-27T01:21:59Z,42.805,6.029,13.3001,4.60008,2469.947,2021-2-27T03:23:04Z
2021-02-27T01:25:02Z,42.805,6.029,13.3009,4.60006,2469.97,2021-2-27T03:26:07Z
2021-02-27T01:28:06Z,42.805,6.029,13.3000,4.60008,2469.984,2021-2-27T03:29:10Z
2021-02-27T01:31:09Z,42.805,6.029,13.3000,4.60010,2469.993,2021-2-27T03:32:13Z
2021-02-27T01:34:12Z,42.805,6.029,13.3004,4.60009,2470.007,2021-2-27T03:35:17Z
2021-02-27T01:37:15Z,42.805,6.029,13.3001,4.60008,2469.984,2021-2-27T03:38:20Z
2021-02-27T01:40:18Z,42.805,6.029,13.3000,4.60009,2469.97,2021-2-27T03:41:23Z
2021-02-27T01:43:21Z,42.805,6.029,13.3002,4.60008,2469.947,2021-2-27T03:44:26Z
2021-02-27T01:46:24Z,42.805,6.029,13.3003,4.60010,2469.984,2021-2-27T03:47:29Z
2021-02-27T01:49:27Z,42.805,6.029,13.3007,4.60014,2469.97,2021-2-27T03:50:32Z
2021-02-27T01:52:31Z,42.805,6.029,13.3008,4.60016,2470.007,2021-2-27T03:53:35Z
2021-02-27T01:55:34Z,42.805,6.029,13.3012,4.60017,2469.97,2021-2-27T03:56:38Z
2021-02-27T01:58:37Z,42.805,6.029,13.3014,4.60020,2469.947,2021-2-27T03:59:42Z
2021-02-27T02:01:40Z,42.805,6.029,13.3015,4.60019,2470.007,2021-2-27T04:02:45Z
2021-02-27T02:04:43Z,42.805,6.029,13.3015,4.60022,2469.947,2021-2-27T04:05:48Z
2021-02-27T02:07:46Z,42.805,6.029,13.3019,4.60027,2469.97,2021-2-27T04:08:51Z
2021-02-27T02:10:49Z,42.805,6.029,13.3015,4.60019,2469.97,2021-2-27T04:11:54Z
2021-02-27T02:13:52Z,42.805,6.029,13.3024,4.60033,2469.96,2021-2-27T04:14:57Z
2021-02-27T02:16:56Z,42.805,6.029,13.3017,4.60027,2469.984,2021-2-27T04:18:00Z
2021-02-27T02:19:59Z,42.805,6.029,13.3021,4.60033,2469.984,2021-2-27T04:21:03Z
2021-02-27T02:23:02Z,42.805,6.029,13.3025,4.60031,2469.984,2021-2-27T04:24:07Z
2021-02-27T02:26:05Z,42.805,6.029,13.3017,4.60039,2469.97,2021-2-27T04:27:10Z
2021-02-27T02:29:08Z,42.805,6.029,13.3016,4.60032,2469.984,2021-2-27T04:30:13Z
2021-02-27T02:32:11Z,42.805,6.029,13.3017,4.60036,2469.984,2021-2-27T04:33:16Z
2021-02-27T02:35:14Z,42.805,6.029,13.3017,4.60028,2469.947,2021-2-27T04:36:19Z
2021-02-27T02:38:17Z,42.805,6.029,13.3019,4.60033,2469.97,2021-2-27T04:39:22Z
2021-02-27T02:41:20Z,42.805,6.029,13.3020,4.60035,2469.984,2021-2-27T04:42:25Z
2021-02-27T02:44:24Z,42.805,6.029,13.3019,4.60034,2469.947,2021-2-27T04:45:28Z
2021-02-27T02:47:27Z,42.805,6.029,13.3022,4.60034,2469.97,2021-2-27T04:48:32Z
2021-02-27T02:50:30Z,42.805,6.029,13.3020,4.60031,2469.97,2021-2-27T04:51:35Z
2021-02-27T02:53:33Z,42.805,6.029,13.3014,4.60030,2469.984,2021-2-27T04:54:38Z
2021-02-27T02:56:36Z,42.805,6.029,13.3017,4.60036,2470.007,2021-2-27T04:57:41Z
2021-02-27T02:59:39Z,42.805,6.029,13.3017,4.60032,2469.993,2021-2-27T05:00:44Z
2021-02-27T03:02:42Z,42.805,6.029,13.3018,4.60035,2469.984,2021-2-27T05:03:47Z
2021-02-27T03:05:45Z,42.805,6.029,13.3019,4.60023,2469.993,2021-2-27T05:06:50Z
2021-02-27T03:08:49Z,42.805,6.029,13.3016,4.60032,2470.007,2021-2-27T05:09:53Z
2021-02-27T03:11:52Z,42.805,6.029,13.3015,4.60029,2469.993,2021-2-27T05:12:57Z
2021-02-27T03:14:55Z,42.805,6.029,13.3010,4.60029,2470.017,2021-2-27T05:16:00Z
2021-02-27T03:17:58Z,42.805,6.029,13.3018,4.60033,2470.017,2021-2-27T05:19:03Z
2021-02-27T03:21:01Z,42.805,6.029,13.3016,4.60034,2469.993,2021-2-27T05:22:06Z
2021-02-27T03:24:04Z,42.805,6.029,13.3018,4.60040,2470.04,2021-2-27T05:25:09Z
2021-02-27T03:27:07Z,42.805,6.029,13.3011,4.60033,2470.04,2021-2-27T05:28:12Z
2021-02-27T03:30:10Z,42.805,6.029,13.3014,4.60031,2470.053,2021-2-27T05:31:15Z
2021-02-27T03:33:14Z,42.805,6.029,13.3015,4.60026,2470.03,2021-2-27T05:34:18Z
2021-02-27T03:36:17Z,42.805,6.029,13.3006,4.60020,2470.04,2021-2-27T05:37:22Z
2021-02-27T03:39:20Z,42.805,6.029,13.3009,4.60016,2470.053,2021-2-27T05:40:25Z
2021-02-27T03:42:23Z,42.805,6.029,13.3003,4.60017,2470.017,2021-2-27T05:43:28Z
2021-02-27T03:45:26Z,42.805,6.029,13.3005,4.60019,2470.03,2021-2-27T05:46:31Z
2021-02-27T03:48:29Z,42.805,6.029,13.3004,4.60019,2470.063,2021-2-27T05:49:34Z
2021-02-27T03:51:32Z,42.805,6.029,13.3005,4.60017,2470.063,2021-2-27T05:52:37Z
2021-02-27T03:54:35Z,42.805,6.029,13.3004,4.60013,2470.04,2021-2-27T05:55:40Z
2021-02-27T03:57:39Z,42.805,6.029,13.3004,4.60011,2470.063,2021-2-27T05:58:43Z
2021-02-27T04:00:42Z,42.805,6.029,13.3004,4.60014,2470.077,2021-2-27T06:01:47Z
2021-02-27T04:03:45Z,42.805,6.029,13.3003,4.60011,2470.1,2021-2-27T06:04:50Z
2021-02-27T04:06:48Z,42.805,6.029,13.2998,4.60011,2470.077,2021-2-27T06:07:53Z
2021-02-27T04:09:51Z,42.805,6.029,13.3007,4.60014,2470.077,2021-2-27T06:10:56Z
2021-02-27T04:12:54Z,42.805,6.029,13.3002,4.60015,2470.1,2021-2-27T06:13:59Z
2021-02-27T04:15:57Z,42.805,6.029,13.3004,4.60014,2470.063,2021-2-27T06:17:02Z
2021-02-27T04:19:00Z,42.805,6.029,13.3001,4.60010,2470.1,2021-2-27T06:20:05Z
2021-02-27T04:22:04Z,42.805,6.029,13.3006,4.60011,2470.11,2021-2-27T06:23:08Z
2021-02-27T04:25:07Z,42.805,6.029,13.3004,4.60012,2470.087,2021-2-27T06:26:11Z
2021-02-27T04:28:10Z,42.805,6.029,13.3000,4.60019,2470.1,2021-2-27T06:29:15Z
2021-02-27T04:31:13Z,42.805,6.029,13.3002,4.60014,2470.147,2021-2-27T06:32:18Z
2021-02-27T04:34:16Z,42.805,6.029,13.2999,4.60010,2470.1,2021-2-27T06:35:21Z
2021-02-27T04:37:19Z,42.805,6.029,13.3000,4.60011,2470.087,2021-2-27T06:38:24Z
2021-02-27T04:40:22Z,42.805,6.029,13.3004,4.60009,2470.147,2021-2-27T06:41:27Z
2021-02-27T04:43:25Z,42.805,6.029,13.3004,4.60011,2470.077,2021-2-27T06:44:30Z
2021-02-27T04:46:29Z,42.805,6.029,13.3008,4.60011,2470.11,2021-2-27T06:47:33Z
2021-02-27T04:49:32Z,42.805,6.029,13.3000,4.60010,2470.11,2021-2-27T06:50:36Z
2021-02-27T04:52:35Z,42.805,6.029,13.3000,4.60010,2470.11,2021-2-27T06:53:40Z
2021-02-27T04:55:38Z,42.805,6.029,13.3002,4.60017,2470.11,2021-2-27T06:56:43Z
2021-02-27T04:58:41Z,42.805,6.029,13.3000,4.60011,2470.133,2021-2-27T06:59:46Z
2021-02-27T05:01:44Z,42.805,6.029,13.3001,4.60011,2470.133,2021-2-27T07:02:49Z
2021-02-27T05:04:47Z,42.805,6.029,13.3000,4.60014,2470.124,2021-2-27T07:05:52Z
2021-02-27T05:07:50Z,42.805,6.029,13.3003,4.60014,2470.156,2021-2-27T07:08:55Z
2021-02-27T05:10:54Z,42.805,6.029,13.3002,4.60012,2470.171,2021-2-27T07:11:58Z
2021-02-27T05:13:57Z,42.805,6.029,13.3001,4.60013,2470.133,2021-2-27T07:15:01Z
2021-02-27T05:17:00Z,42.805,6.029,13.3005,4.60021,2470.147,2021-2-27T07:18:05Z
2021-02-27T05:20:03Z,42.805,6.029,13.3002,4.60014,2470.133,2021-2-27T07:21:08Z
2021-02-27T05:23:06Z,42.805,6.029,13.3002,4.60011,2470.171,2021-2-27T07:24:11Z
2021-02-27T05:26:09Z,42.805,6.029,13.2991,4.60002,2470.171,2021-2-27T07:27:14Z
2021-02-27T05:29:12Z,42.805,6.029,13.2993,4.60003,2470.171,2021-2-27T07:30:17Z
2021-02-27T05:32:15Z,42.805,6.029,13.2991,4.59999,2470.18,2021-2-27T07:33:20Z
2021-02-27T05:35:18Z,42.805,6.029,13.2993,4.60000,2470.18,2021-2-27T07:36:23Z
2021-02-27T05:38:22Z,42.805,6.029,13.2988,4.59999,2470.171,2021-2-27T07:39:26Z
2021-02-27T05:41:25Z,42.805,6.029,13.2992,4.59998,2470.18,2021-2-27T07:42:30Z
2021-02-27T05:44:28Z,42.805,6.029,13.2985,4.59996,2470.156,2021-2-27T07:45:33Z
2021-02-27T05:47:31Z,42.805,6.029,13.2987,4.59999,2470.18,2021-2-27T07:48:36Z
2021-02-27T05:50:34Z,42.805,6.029,13.2993,4.60000,2470.156,2021-2-27T07:51:39Z
2021-02-27T05:53:37Z,42.805,6.029,13.2987,4.60000,2470.203,2021-2-27T07:54:42Z
2021-02-27T05:56:40Z,42.805,6.029,13.2986,4.59999,2470.18,2021-2-27T07:57:45Z
2021-02-27T05:59:43Z,42.805,6.029,13.2985,4.59999,2470.18,2021-2-27T08:00:48Z
2021-02-27T06:02:47Z,42.805,6.029,13.2989,4.59999,2470.194,2021-2-27T08:03:51Z
2021-02-27T06:05:50Z,42.805,6.029,13.2980,4.59994,2470.203,2021-2-27T08:06:55Z
2021-02-27T06:08:53Z,42.805,6.029,13.2985,4.59999,2470.217,2021-2-27T08:09:58Z
2021-02-27T06:11:56Z,42.805,6.029,13.2990,4.59996,2470.227,2021-2-27T08:13:01Z
2021-02-27T06:14:59Z,42.805,6.029,13.2991,4.60008,2470.227,2021-2-27T08:16:04Z
2021-02-27T06:18:02Z,42.805,6.029,13.2987,4.60005,2470.203,2021-2-27T08:19:07Z
2021-02-27T06:21:05Z,42.805,6.029,13.2996,4.60009,2470.203,2021-2-27T08:22:10Z
2021-02-27T06:24:08Z,42.805,6.029,13.2990,4.59999,2470.227,2021-2-27T08:25:13Z
2021-02-27T06:27:12Z,42.805,6.029,13.2988,4.59998,2470.166,2021-2-27T08:28:16Z
2021-02-27T06:30:15Z,42.805,6.029,13.2982,4.59992,2470.203,2021-2-27T08:31:19Z
2021-02-27T06:33:18Z,42.805,6.029,13.2991,4.59997,2470.217,2021-2-27T08:34:23Z
2021-02-27T06:36:21Z,42.805,6.029,13.2985,4.59999,2470.227,2021-2-27T08:37:26Z
2021-02-27T06:39:24Z,42.805,6.029,13.2986,4.60002,2470.24,2021-2-27T08:40:29Z
2021-02-27T06:42:27Z,42.805,6.029,13.2983,4.59995,2470.194,2021-2-27T08:43:32Z
2021-02-27T06:45:30Z,42.805,6.029,13.2988,4.60001,2470.227,2021-2-27T08:46:35Z
2021-02-27T06:48:33Z,42.805,6.029,13.2989,4.59999,2470.25,2021-2-27T08:49:38Z
2021-02-27T06:51:37Z,42.805,6.029,13.2988,4.59996,2470.227,2021-2-27T08:52:41Z
2021-02-27T06:54:40Z,42.805,6.029,13.2984,4.60000,2470.217,2021-2-27T08:55:45Z
2021-02-27T06:57:43Z,42.805,6.029,13.2986,4.60001,2470.25,2021-2-27T08:58:48Z
2021-02-27T07:00:46Z,42.805,6.029,13.2990,4.60001,2470.25,2021-2-27T09:01:51Z
2021-02-27T07:03:49Z,42.805,6.029,13.2996,4.60001,2470.25,2021-2-27T09:04:54Z
2021-02-27T07:06:52Z,42.805,6.029,13.2989,4.60005,2470.227,2021-2-27T09:07:57Z
2021-02-27T07:09:55Z,42.805,6.029,13.2990,4.59999,2470.203,2021-2-27T09:11:00Z
2021-02-27T07:12:58Z,42.805,6.029,13.2989,4.60001,2470.287,2021-2-27T09:14:03Z
2021-02-27T07:16:02Z,42.805,6.029,13.2991,4.60000,2470.25,2021-2-27T09:17:06Z
2021-02-27T07:19:05Z,42.805,6.029,13.2984,4.59994,2470.203,2021-2-27T09:20:09Z
2021-02-27T07:22:08Z,42.805,6.029,13.2989,4.59997,2470.273,2021-2-27T09:23:13Z
2021-02-27T07:25:11Z,42.805,6.029,13.2985,4.60000,2470.24,2021-2-27T09:26:16Z
2021-02-27T07:28:14Z,42.805,6.029,13.2987,4.59998,2470.217,2021-2-27T09:29:19Z
2021-02-27T07:31:17Z,42.805,6.029,13.2987,4.59996,2470.273,2021-2-27T09:32:22Z
2021-02-27T07:34:20Z,42.805,6.029,13.2987,4.60005,2470.26,2021-2-27T09:35:25Z
2021-02-27T07:37:23Z,42.805,6.029,13.2993,4.60002,2470.24,2021-2-27T09:38:28Z
2021-02-27T07:40:27Z,42.805,6.029,13.2993,4.60007,2470.24,2021-2-27T09:41:31Z
2021-02-27T07:43:30Z,42.805,6.029,13.2991,4.60001,2470.227,2021-2-27T09:44:34Z
2021-02-27T07:46:33Z,42.805,6.029,13.2991,4.59997,2470.213,2021-2-27T09:47:38Z
2021-02-27T07:49:36Z,42.805,6.029,13.2993,4.60010,2470.264,2021-2-27T09:50:41Z
2021-02-27T07:52:39Z,42.805,6.029,13.2989,4.59999,2470.25,2021-2-27T09:53:44Z
2021-02-27T07:55:42Z,42.805,6.029,13.2990,4.60001,2470.25,2021-2-27T09:56:47Z
2021-02-27T07:58:45Z,42.805,6.029,13.2990,4.60001,2470.264,2021-2-27T09:59:50Z
2021-02-27T08:01:48Z,42.805,6.029,13.2989,4.60000,2470.273,2021-2-27T10:02:53Z
2021-02-27T08:04:52Z,42.805,6.029,13.2986,4.59999,2470.264,2021-2-27T10:05:56Z
2021-02-27T08:07:55Z,42.805,6.029,13.2993,4.60009,2470.25,2021-2-27T10:08:59Z
2021-02-27T08:10:58Z,42.805,6.029,13.2983,4.60003,2470.24,2021-2-27T10:12:03Z
2021-02-27T08:14:01Z,42.805,6.029,13.2987,4.59999,2470.287,2021-2-27T10:15:06Z
2021-02-27T08:17:04Z,42.805,6.029,13.2984,4.59999,2470.25,2021-2-27T10:18:09Z
2021-02-27T08:20:07Z,42.805,6.029,13.2989,4.60009,2470.273,2021-2-27T10:21:12Z
2021-02-27T08:23:10Z,42.805,6.029,13.2986,4.60001,2470.25,2021-2-27T10:24:15Z
2021-02-27T08:26:13Z,42.805,6.029,13.2990,4.60001,2470.264,2021-2-27T10:27:18Z
2021-02-27T08:29:17Z,42.805,6.029,13.2989,4.59997,2470.24,2021-2-27T10:30:21Z
2021-02-27T08:32:20Z,42.805,6.029,13.2990,4.60002,2470.25,2021-2-27T10:33:24Z
2021-02-27T08:35:23Z,42.805,6.029,13.2988,4.59998,2470.25,2021-2-27T10:36:28Z
2021-02-27T08:38:26Z,42.805,6.029,13.2989,4.60003,2470.25,2021-2-27T10:39:31Z
2021-02-27T08:41:29Z,42.805,6.029,13.2986,4.59999,2470.264,2021-2-27T10:42:34Z
2021-02-27T08:44:32Z,42.805,6.029,13.2992,4.60007,2470.264,2021-2-27T10:45:37Z
2021-02-27T08:47:35Z,42.805,6.029,13.2993,4.60003,2470.24,2021-2-27T10:48:40Z
2021-02-27T08:50:38Z,42.805,6.029,13.2989,4.60000,2470.227,2021-2-27T10:51:43Z
2021-02-27T08:53:42Z,42.805,6.029,13.2993,4.60010,2470.25,2021-2-27T10:54:46Z
2021-02-27T08:56:45Z,42.805,6.029,13.2990,4.60011,2470.227,2021-2-27T10:57:50Z
2021-02-27T08:59:48Z,42.805,6.029,13.2986,4.60005,2470.227,2021-2-27T11:00:53Z
2021-02-27T09:02:51Z,42.805,6.029,13.2987,4.60005,2470.25,2021-2-27T11:03:56Z
2021-02-27T09:05:54Z,42.805,6.029,13.2989,4.60007,2470.24,2021-2-27T11:06:59Z
2021-02-27T09:08:57Z,42.805,6.029,13.2991,4.59999,2470.227,2021-2-27T11:10:02Z
2021-02-27T09:12:00Z,42.805,6.029,13.2986,4.60003,2470.203,2021-2-27T11:13:05Z
2021-02-27T09:15:03Z,42.805,6.029,13.2990,4.60007,2470.25,2021-2-27T11:16:08Z
2021-02-27T09:18:07Z,42.805,6.029,13.2989,4.60001,2470.264,2021-2-27T11:19:11Z
2021-02-27T09:21:10Z,42.805,6.029,13.2993,4.60002,2470.227,2021-2-27T11:22:14Z
2021-02-27T09:24:13Z,42.805,6.029,13.2992,4.60003,2470.217,2021-2-27T11:25:18Z
2021-02-27T09:27:16Z,42.805,6.029,13.2995,4.60000,2470.18,2021-2-27T11:28:21Z
2021-02-27T09:30:19Z,42.805,6.029,13.2992,4.60004,2470.227,2021-2-27T11:31:24Z
2021-02-27T09:33:22Z,42.805,6.029,13.2993,4.60014,2470.217,2021-2-27T11:34:27Z
2021-02-27T09:36:25Z,42.805,6.029,13.2991,4.60006,2470.18,2021-2-27T11:37:30Z
2021-02-27T09:39:28Z,42.805,6.029,13.2990,4.60003,2470.18,2021-2-27T11:40:33Z
2021-02-27T09:42:32Z,42.805,6.029,13.2997,4.60008,2470.24,2021-2-27T11:43:36Z
2021-02-27T09:45:35Z,42.805,6.029,13.2993,4.60014,2470.217,2021-2-27T11:46:40Z
2021-02-27T09:48:38Z,42.805,6.029,13.2990,4.60005,2470.217,2021-2-27T11:49:43Z
2021-02-27T09:51:41Z,42.805,6.029,13.2992,4.60006,2470.203,2021-2-27T11:52:46Z
2021-02-27T09:54:44Z,42.805,6.029,13.2993,4.60011,2470.18,2021-2-27T11:55:49Z
2021-02-27T09:57:47Z,42.805,6.029,13.2993,4.60007,2470.217,2021-2-27T11:58:52Z
2021-02-27T10:00:50Z,42.805,6.029,13.2986,4.59999,2470.119,2021-2-27T12:01:55Z
2021-02-27T10:03:54Z,42.805,6.029,13.2992,4.59999,2470.217,2021-2-27T12:04:58Z
2021-02-27T10:06:57Z,42.805,6.029,13.2997,4.60006,2470.156,2021-2-27T12:08:01Z
2021-02-27T10:10:00Z,42.805,6.029,13.2990,4.60006,2470.18,2021-2-27T12:11:05Z
2021-02-27T10:13:03Z,42.805,6.029,13.2990,4.60006,2470.156,2021-2-27T12:14:08Z
2021-02-27T10:16:06Z,42.805,6.029,13.2990,4.60004,2470.171,2021-2-27T12:17:11Z
2021-02-27T10:19:09Z,42.805,6.029,13.2991,4.59999,2470.194,2021-2-27T12:20:14Z
2021-02-27T10:22:12Z,42.805,6.029,13.2995,4.59999,2470.203,2021-2-27T12:23:17Z
2021-02-27T10:25:15Z,42.805,6.029,13.2991,4.60000,2470.217,2021-2-27T12:26:20Z
2021-02-27T10:28:19Z,42.805,6.029,13.2992,4.60002,2470.133,2021-2-27T12:29:23Z
2021-02-27T10:31:22Z,42.805,6.029,13.2990,4.60009,2470.171,2021-2-27T12:32:27Z
2021-02-27T10:34:25Z,42.805,6.029,13.2991,4.59997,2470.133,2021-2-27T12:35:30Z
2021-02-27T10:37:28Z,42.805,6.029,13.2993,4.60016,2470.133,2021-2-27T12:38:33Z
2021-02-27T10:40:31Z,42.805,6.029,13.2993,4.60010,2470.147,2021-2-27T12:41:36Z
2021-02-27T10:43:34Z,42.805,6.029,13.2993,4.59999,2470.156,2021-2-27T12:44:39Z
2021-02-27T10:46:37Z,42.805,6.029,13.2988,4.60000,2470.18,2021-2-27T12:47:42Z
2021-02-27T10:49:40Z,42.805,6.029,13.2990,4.59999,2470.133,2021-2-27T12:50:45Z
2021-02-27T10:52:44Z,42.805,6.029,13.2994,4.60002,2470.194,2021-2-27T12:53:48Z
2021-02-27T10:55:47Z,42.805,6.029,13.2989,4.60007,2470.171,2021-2-27T12:56:52Z
2021-02-27T10:58:50Z,42.805,6.029,13.2998,4.60009,2470.147,2021-2-27T12:59:55Z
2021-02-27T11:01:53Z,42.805,6.029,13.2991,4.59997,2470.147,2021-2-27T13:02:58Z
2021-02-27T11:04:56Z,42.805,6.029,13.2995,4.59995,2470.156,2021-2-27T13:06:01Z
2021-02-27T11:07:59Z,42.805,6.029,13.2990,4.60004,2470.133,2021-2-27T13:09:04Z
2021-02-27T11:11:02Z,42.805,6.029,13.2994,4.59993,2470.147,2021-2-27T13:12:07Z
2021-02-27T11:14:05Z,42.805,6.029,13.2990,4.59999,2470.11,2021-2-27T13:15:10Z
2021-02-27T11:17:09Z,42.805,6.029,13.2989,4.59999,2470.11,2021-2-27T13:18:13Z
2021-02-27T11:20:12Z,42.805,6.029,13.2994,4.59997,2470.133,2021-2-27T13:21:17Z
2021-02-27T11:23:15Z,42.805,6.029,13.2986,4.59991,2470.11,2021-2-27T13:24:20Z
2021-02-27T11:26:18Z,42.805,6.029,13.2988,4.59996,2470.087,2021-2-27T13:27:23Z
2021-02-27T11:29:21Z,42.805,6.029,13.2986,4.59998,2470.124,2021-2-27T13:30:26Z
2021-02-27T11:32:24Z,42.805,6.029,13.2990,4.60003,2470.124,2021-2-27T13:33:29Z
2021-02-27T11:35:27Z,42.805,6.029,13.2998,4.60004,2470.133,2021-2-27T13:36:32Z
2021-02-27T11:38:30Z,42.805,6.029,13.2990,4.60012,2470.11,2021-2-27T13:39:35Z
2021-02-27T11:41:34Z,42.805,6.029,13.2991,4.59996,2470.133,2021-2-27T13:42:38Z
2021-02-27T11:44:37Z,42.805,6.029,13.2989,4.60006,2470.124,2021-2-27T13:45:42Z
2021-02-27T11:47:40Z,42.805,6.029,13.2991,4.60003,2470.133,2021-2-27T13:48:45Z
2021-02-27T11:50:43Z,42.805,6.029,13.2993,4.59996,2470.087,2021-2-27T13:51:48Z
2021-02-27T11:53:46Z,42.805,6.029,13.2992,4.59999,2470.124,2021-2-27T13:54:51Z
2021-02-27T11:56:49Z,42.805,6.029,13.2991,4.60004,2470.11,2021-2-27T13:57:54Z
2021-02-27T11:59:52Z,42.805,6.029,13.2990,4.59998,2470.1,2021-2-27T14:00:57Z
2021-02-27T12:02:56Z,42.805,6.029,13.2992,4.60003,2470.087,2021-2-27T14:04:00Z
2021-02-27T12:05:59Z,42.805,6.029,13.2991,4.59996,2470.063,2021-2-27T14:07:04Z
2021-02-27T12:09:02Z,42.805,6.029,13.2996,4.60001,2470.087,2021-2-27T14:10:07Z
2021-02-27T12:12:05Z,42.805,6.029,13.2990,4.60007,2470.077,2021-2-27T14:13:10Z
2021-02-27T12:15:08Z,42.805,6.029,13.2993,4.59994,2470.063,2021-2-27T14:16:13Z
2021-02-27T12:18:11Z,42.805,6.029,13.2993,4.59999,2470.1,2021-2-27T14:19:16Z
2021-02-27T12:21:14Z,42.805,6.029,13.2988,4.60002,2470.077,2021-2-27T14:22:19Z
2021-02-27T12:24:17Z,42.805,6.029,13.2991,4.60002,2470.087,2021-2-27T14:25:22Z
2021-02-27T12:27:21Z,42.805,6.029,13.2985,4.60003,2470.087,2021-2-27T14:28:25Z
2021-02-27T12:30:24Z,42.805,6.029,13.2990,4.59999,2470.063,2021-2-27T14:31:29Z
2021-02-27T12:33:27Z,42.805,6.029,13.2993,4.60009,2470.063,2021-2-27T14:34:32Z
2021-02-27T12:36:30Z,42.805,6.029,13.2996,4.59999,2470.063,2021-2-27T14:37:35Z
2021-02-27T12:39:33Z,42.805,6.029,13.2991,4.59999,2470.063,2021-2-27T14:40:38Z
2021-02-27T12:42:36Z,42.805,6.029,13.2987,4.60003,2470.063,2021-2-27T14:43:41Z
2021-02-27T12:45:39Z,42.805,6.029,13.2989,4.59996,2470.077,2021-2-27T14:46:44Z
2021-02-27T12:48:42Z,42.805,6.029,13.2991,4.59996,2470.04,2021-2-27T14:49:47Z
2021-02-27T12:51:46Z,42.805,6.029,13.2985,4.60001,2470.063,2021-2-27T14:52:50Z
2021-02-27T12:54:49Z,42.805,6.029,13.2992,4.59991,2470.077,2021-2-27T14:55:54Z
2021-02-27T12:57:52Z,42.805,6.029,13.2991,4.60005,2470.063,2021-2-27T14:58:57Z
2021-02-27T13:00:55Z,42.805,6.029,13.2996,4.60003,2470.063,2021-2-27T15:02:00Z
2021-02-27T13:03:58Z,42.805,6.029,13.2991,4.59997,2470.053,2021-2-27T15:05:03Z
2021-02-27T13:07:01Z,42.805,6.029,13.2989,4.59998,2470.077,2021-2-27T15:08:06Z
2021-02-27T13:10:04Z,42.805,6.029,13.2987,4.59994,2470.063,2021-2-27T15:11:09Z
2021-02-27T13:13:07Z,42.805,6.029,13.2990,4.60004,2470.017,2021-2-27T15:14:12Z
2021-02-27T13:16:11Z,42.805,6.029,13.2991,4.60009,2470.053,2021-2-27T15:17:15Z
2021-02-27T13:19:14Z,42.805,6.029,13.2991,4.59995,2470.03,2021-2-27T15:20:19Z
2021-02-27T13:22:17Z,42.805,6.029,13.2988,4.60002,2470.03,2021-2-27T15:23:22Z
2021-02-27T13:25:20Z,42.805,6.029,13.2990,4.59997,2470.017,2021-2-27T15:26:25Z
2021-02-27T13:28:23Z,42.805,6.029,13.2990,4.59997,2470.017,2021-2-27T15:29:28Z
2021-02-27T13:31:26Z,42.805,6.029,13.2986,4.60003,2470.017,2021-2-27T15:32:31Z
2021-02-27T13:34:29Z,42.805,6.029,13.2993,4.59992,2470.017,2021-2-27T15:35:34Z
2021-02-27T13:37:33Z,42.805,6.029,13.2991,4.59988,2470.063,2021-2-27T15:38:37Z
2021-02-27T13:40:36Z,42.805,6.029,13.2995,4.59991,2469.993,2021-2-27T15:41:40Z
2021-02-27T13:43:39Z,42.805,6.029,13.2987,4.60004,2470.053,2021-2-27T15:44:44Z
2021-02-27T13:46:42Z,42.805,6.029,13.2991,4.60001,2470.04,2021-2-27T15:47:47Z
2021-02-27T13:49:45Z,42.805,6.029,13.2993,4.59996,2470.017,2021-2-27T15:50:50Z
2021-02-27T13:52:48Z,42.805,6.029,13.2989,4.60000,2470.017,2021-2-27T15:53:53Z
2021-02-27T13:55:51Z,42.805,6.029,13.2988,4.59996,2470.017,2021-2-27T15:56:56Z
2021-02-27T13:58:54Z,42.805,6.029,13.2991,4.59996,2470.007,2021-2-27T15:59:59Z
2021-02-27T14:01:58Z,42.805,6.029,13.2986,4.59990,2470.017,2021-2-27T16:03:02Z
2021-02-27T14:05:01Z,42.805,6.029,13.2988,4.59996,2470.017,2021-2-27T16:06:06Z
2021-02-27T14:08:04Z,42.805,6.029,13.2992,4.60005,2470.017,2021-2-27T16:09:09Z
2021-02-27T14:11:07Z,42.805,6.029,13.2992,4.59997,2470.017,2021-2-27T16:12:12Z
2021-02-27T14:14:10Z,42.805,6.029,13.2992,4.60006,2470.04,2021-2-27T16:15:15Z
2021-02-27T14:17:13Z,42.805,6.029,13.2987,4.60003,2470.017,2021-2-27T16:18:18Z
2021-02-27T14:20:16Z,42.805,6.029,13.2991,4.60005,2470.007,2021-2-27T16:21:21Z
2021-02-27T14:23:19Z,42.805,6.029,13.2988,4.59999,2470.017,2021-2-27T16:24:24Z
2021-02-27T14:26:23Z,42.805,6.029,13.2989,4.60003,2470.03,2021-2-27T16:27:27Z
2021-02-27T14:29:26Z,42.805,6.029,13.2987,4.60009,2470.017,2021-2-27T16:30:31Z
2021-02-27T14:32:29Z,42.805,6.029,13.2991,4.59998,2470.04,2021-2-27T16:33:34Z
2021-02-27T14:35:32Z,42.805,6.029,13.2990,4.59996,2470.017,2021-2-27T16:36:37Z
2021-02-27T14:38:35Z,42.805,6.029,13.2990,4.60004,2469.993,2021-2-27T16:39:40Z
2021-02-27T14:41:38Z,42.805,6.029,13.2986,4.59995,2470.03,2021-2-27T16:42:43Z
2021-02-27T14:44:41Z,42.805,6.029,13.2994,4.59999,2469.993,2021-2-27T16:45:46Z
2021-02-27T14:47:44Z,42.805,6.029,13.2992,4.59993,2470.017,2021-2-27T16:48:49Z
2021-02-27T14:50:48Z,42.805,6.029,13.2993,4.59995,2470.017,2021-2-27T16:51:52Z
2021-02-27T14:53:51Z,42.805,6.029,13.2988,4.59997,2470.04,2021-2-27T16:54:56Z
2021-02-27T14:56:54Z,42.805,6.029,13.2991,4.60001,2470.017,2021-2-27T16:57:59Z
2021-02-27T14:59:57Z,42.805,6.029,13.2991,4.60009,2469.993,2021-2-27T17:01:02Z
2021-02-27T15:03:00Z,42.805,6.029,13.2990,4.60011,2469.993,2021-2-27T17:04:05Z
2021-02-27T15:06:03Z,42.805,6.029,13.2993,4.59998,2470.017,2021-2-27T17:07:08Z
2021-02-27T15:09:06Z,42.805,6.029,13.2991,4.59995,2470.017,2021-2-27T17:10:11Z
2021-02-27T15:12:10Z,42.805,6.029,13.2985,4.60008,2470.053,2021-2-27T17:13:14Z
2021-02-27T15:15:13Z,42.805,6.029,13.2991,4.60010,2470.053,2021-2-27T17:16:17Z